Regional Weather Roundup
Issued by NWS Charleston, WV

Home | Current Version | Previous Version | Graphics & Text | Print | Product List | Glossary On
Versions: 1 2 3 4 5 6 7 8 9 10 11 12 13 14 15 16 17 18 19 20 21 22 23 24 25 26 27 28 29 30 31 32 33 34 35 36 37 38 39 40 41 42 43 44 45 46 47 48 49 50
070
ASUS41 KRLX 240210
RWRRLX
West Virginia Regional Weather Roundup
National Weather Service Charleston WV
1000 PM EDT MON MAY 23 2016

Note: "fair" indicates few or no clouds below 12,000 feet with no
significant weather and/or obstructions to visibility.

WVZ003-240300-
Northern Panhandle of West Virginia

CITY           SKY/WX    TMP DP  RH WIND       PRES   REMARKS
WHEELING         N/A     62  52  69 W3        30.01R
$$

WVZ009-240300-
Northwest West Virginia

CITY           SKY/WX    TMP DP  RH WIND       PRES   REMARKS
PARKERSBURG    MOCLDY    66  52  60 E6        30.05R
$$

WVZ006-240300-
Western West Virginia

CITY           SKY/WX    TMP DP  RH WIND       PRES   REMARKS
HUNTINGTON       N/A     62  52  69 CALM      30.03R
$$

WVZ015-240300-
West Central West Virginia

CITY           SKY/WX    TMP DP  RH WIND       PRES   REMARKS
CHARLESTON       N/A     62  54  74 CALM      30.04R
$$

WVZ022-031-240300-
North Central West Virginia

CITY           SKY/WX    TMP DP  RH WIND       PRES   REMARKS
CLARKSBURG       N/A     57  54  89 S5        30.03R
MORGANTOWN       N/A     59  50  72 CALM      30.03R
$$

WVZ025-035-042-045-240300-
Southern West Virginia

CITY           SKY/WX    TMP DP  RH WIND       PRES   REMARKS
BECKLEY          N/A     58  49  72 NE8       30.10R
LOGAN            N/A     63  50  63 CALM      30.06R
BLUEFIELD        N/A     52  49  89 W6        30.10R
LEWISBURG        N/A     56  51  81 CALM      30.08R
$$

WVZ047-240300-
Northern Mountains of West Virginia

CITY           SKY/WX    TMP DP  RH WIND       PRES   REMARKS
ELKINS         CLOUDY    53  51  93 CALM      30.07R
$$

WVZ052-240300-
Eastern Panhandle of West Virginia

CITY           SKY/WX    TMP DP  RH WIND       PRES   REMARKS
MARTINSBURG    LGT RAIN  59  54  83 W9        29.96F
PETERSBURG     MOCLDY    57  56  97 CALM      30.02R
$$




USA.gov is the U.S. government's official web portal to all federal, state and local government web resources and services.